Overview Statistics Trail Chart Weather Telemetry Raw packets
 

This is the latest recevied weather packets stored in our database for station/object KD8DNO-13. If no packets are shown the sender has not sent any weather packets the latest 10 day(s).

<< 72 73 74 75 76 77 78 >>
Time Temp. Humidity Pressure Rain* Wind** Luminosity Snow
1788040383 26.67° C 59% 1022.3 hPa 0 mm - - -
1788040083 26.11° C 60% 1022.3 hPa 0 mm - - -
1788039783 26.67° C 62% 1022.3 hPa 0 mm - - -
1788039483 25.56° C 65% 1022.3 hPa 0 mm - - -
1788039184 25° C 65% 1022.3 hPa 0 mm - - -
1788038883 25.56° C 62% 1022.3 hPa 0 mm - - -
1788038583 25.56° C 64% 1022.3 hPa 0 mm - - -
1788038283 26.67° C 57% 1022.3 hPa 0 mm - - -
1788037983 26.11° C 58% 1022.3 hPa 0 mm - - -
1788037683 27.78° C 55% 1022.3 hPa 0 mm - - -
1788037384 28.33° C 52% 1022.3 hPa 0 mm - - -
1788037083 27.22° C 55% 1022.3 hPa 0 mm - - -
1788036783 27.78° C 56% 1022.3 hPa 0 mm - - -
1788036483 27.22° C 55% 1022.3 hPa 0 mm - - -
1788036183 26.67° C 58% 1022.3 hPa 0 mm - - -
1788035883 26.11° C 58% 1023 hPa 0 mm - - -
1788035583 26.67° C 56% 1023 hPa 0 mm - - -
1788035283 26.67° C 56% 1023 hPa 0 mm - - -
1788034983 25.56° C 64% 1023 hPa 0 mm - - -
1788034683 25.56° C 57% 1023 hPa 0 mm - - -
1788034383 26.11° C 57% 1023 hPa 0 mm - - -
1788034084 27.22° C 57% 1023 hPa 0 mm - - -
1788033784 27.22° C 55% 1023.3 hPa 0 mm - - -
1788033483 27.22° C 57% 1023.3 hPa 0 mm - - -
1788033183 26.11° C 59% 1023.3 hPa 0 mm - - -

* Rain latest hour (hover to see other rain measurements)
** Current wind speed in m/s (hover to see current wind gust speed)